GW6550 Weather Reports


time (UTC)temp
F
wind
direction
speed
knots
gust
knots
rain 1hr
in
rain 24hr
in
rain mn
in
humidity
%
barometer
mb
20260505234308 62 171 1.7 4.3 0.00 0.00 0.01 67 1015.9
20260505233808 62 123 0.0 0.9 0.00 0.00 0.01 67 1015.9
20260505233308 62 212 2.6 3.5 0.00 0.00 0.01 67 1015.9
20260505232808 62 185 0.9 1.7 0.00 0.00 0.01 66 1016.0
20260505232309 62 186 0.9 1.7 0.00 0.00 0.01 66 1016.0
20260505231807 62 186 0.9 2.6 0.00 0.00 0.01 67 1016.0
20260505231308 62 192 1.7 2.6 0.00 0.00 0.01 66 1016.0
20260505230322 62 172 0.9 1.7 0.00 0.00 0.01 67 1016.0
20260505225808 63 250 0.0 0.9 0.00 0.00 0.01 66 1016.0
20260505225308 63 146 0.9 3.5 0.00 0.00 0.01 66 1016.0
20260505224807 63 250 0.0 0.9 0.00 0.00 0.01 66 1016.0
20260505224308 62 286 0.0 1.7 0.00 0.00 0.01 66 1016.0
20260505223807 62 18 0.0 0.9 0.00 0.00 0.01 68 1016.1
20260505223308 62 48 1.7 3.5 0.00 0.00 0.01 67 1016.1
20260505222807 62 53 2.6 3.5 0.00 0.00 0.01 68 1016.2
20260505222307 61 1 0.0 0.9 0.00 0.00 0.01 68 1016.2
20260505221808 61 66 2.6 3.5 0.00 0.00 0.01 69 1016.2
20260505221307 61 350 2.6 4.3 0.00 0.00 0.01 69 1016.3
20260505220807 61 50 2.6 4.3 0.00 0.00 0.01 68 1016.3
20260505220308 61 44 3.5 5.2 0.00 0.00 0.01 69 1016.3
20260505215807 61 37 2.6 3.5 0.00 0.00 0.01 69 1016.3
20260505215307 61 45 1.7 3.5 0.00 0.00 0.01 70 1016.3
20260505214807 61 17 2.6 3.5 0.00 0.00 0.01 69 1016.3
20260505214307 61 33 2.6 5.2 0.00 0.00 0.01 69 1016.4
20260505213809 61 40 2.6 4.3 0.00 0.00 0.01 68 1016.5
20260505213308 61 52 1.7 3.5 0.00 0.00 0.01 69 1016.5
20260505212808 61 33 2.6 3.5 0.00 0.00 0.01 69 1016.6
20260505212308 61 44 1.7 2.6 0.00 0.00 0.01 69 1016.5
20260505211810 61 33 3.5 5.2 0.00 0.00 0.01 69 1016.5
20260505211308 61 47 3.5 4.3 0.00 0.00 0.01 70 1016.5
20260505210807 61 32 3.5 5.2 0.00 0.00 0.01 70 1016.5
20260505210307 61 40 2.6 5.2 0.00 0.00 0.01 70 1016.5
20260505205807 62 0 2.6 4.3 0.00 0.00 0.01 69 1016.4
20260505205307 62 4 1.7 3.5 0.00 0.00 0.01 68 1016.4
20260505204808 62 36 1.7 2.6 0.00 0.00 0.01 67 1016.4
20260505204308 62 4 1.7 3.5 0.00 0.00 0.01 68 1016.4
20260505203807 62 42 1.7 2.6 0.00 0.00 0.01 67 1016.4
20260505203308 62 278 2.6 3.5 0.00 0.00 0.01 67 1016.4
20260505202807 61 202 1.7 3.5 0.00 0.00 0.01 69 1016.4
20260505202308 61 206 1.7 2.6 0.00 0.00 0.01 71 1016.4
20260505201807 60 277 1.7 2.6 0.00 0.00 0.01 72 1016.5
20260505201308 61 277 1.7 3.5 0.00 0.00 0.01 73 1016.6
20260505200808 60 302 0.9 1.7 0.00 0.00 0.01 73 1016.7
20260505200309 60 320 0.9 2.6 0.00 0.00 0.01 73 1016.7
20260505195808 60 337 1.7 1.7 0.00 0.00 0.01 74 1016.7
20260505195308 59 202 0.0 0.9 0.00 0.00 0.01 74 1016.8
20260505194808 59 259 0.9 1.7 0.00 0.00 0.01 75 1016.8
20260505194308 59 291 1.7 2.6 0.00 0.00 0.01 75 1016.8
20260505193808 60 285 0.9 1.7 0.00 0.00 0.01 74 1016.8
20260505193307 60 303 1.7 3.5 0.00 0.00 0.01 74 1016.9
20260505192807 60 280 1.7 3.5 0.00 0.00 0.01 73 1016.9
20260505192307 60 275 0.9 1.7 0.00 0.00 0.01 74 1016.8
20260505191808 60 265 1.7 3.5 0.00 0.00 0.01 73 1016.8
20260505191307 60 213 1.7 3.5 0.00 0.00 0.01 72 1016.7
20260505190807 60 239 1.7 2.6 0.00 0.00 0.01 73 1016.7
20260505190307 59 157 0.9 1.7 0.00 0.00 0.01 73 1016.7
20260505185808 59 211 1.7 2.6 0.00 0.00 0.01 74 1016.7
20260505185307 59 206 1.7 2.6 0.00 0.00 0.01 74 1016.7
20260505184808 59 285 2.6 3.5 0.00 0.00 0.01 74 1016.7
20260505184308 59 224 0.9 1.7 0.00 0.00 0.01 74 1016.7
20260505183808 58 258 0.9 1.7 0.00 0.00 0.01 75 1016.7
20260505183307 58 287 1.7 3.5 0.00 0.00 0.01 75 1016.8
20260505182810 58 236 1.7 3.5 0.00 0.00 0.01 75 1016.8
20260505182308 58 216 1.7 3.5 0.00 0.00 0.01 76 1016.7
20260505181808 58 354 1.7 2.6 0.00 0.00 0.01 75 1016.7
20260505181307 58 86 0.0 0.9 0.00 0.00 0.01 75 1016.7
20260505180809 58 62 1.7 2.6 0.00 0.00 0.01 75 1016.7
20260505180308 57 82 0.9 2.6 0.00 0.00 0.01 75 1016.6
20260505175808 57 296 1.7 2.6 0.00 0.00 0.01 76 1016.6
20260505175307 57 261 0.9 2.6 0.00 0.00 0.01 76 1016.6
20260505174807 57 270 0.9 1.7 0.00 0.00 0.01 76 1016.6
20260505174309 57 318 0.9 1.7 0.00 0.00 0.01 75 1016.6
20260505173809 57 338 2.6 4.3 0.00 0.00 0.01 75 1016.5
20260505173308 58 196 1.7 3.5 0.00 0.00 0.01 74 1016.4
20260505172808 58 354 0.9 1.7 0.00 0.00 0.01 74 1016.4
20260505172307 58 320 0.9 1.7 0.00 0.00 0.01 74 1016.3
20260505171809 58 307 0.9 0.9 0.00 0.00 0.01 73 1016.2
20260505171308 58 335 0.9 1.7 0.00 0.00 0.01 74 1016.2
20260505170808 58 305 0.9 1.7 0.00 0.00 0.01 72 1016.2
20260505170308 58 268 0.0 1.7 0.00 0.00 0.01 71 1016.2
20260505165808 57 0 0.0 0.0 0.00 0.00 0.01 72 1016.2
20260505165308 57 356 0.9 1.7 0.00 0.00 0.01 71 1016.2
20260505164808 57 354 0.0 0.0 0.00 0.00 0.01 72 1016.2
20260505164024 57 113 0.9 1.7 0.00 0.00 0.01 71 1016.1
20260505163307 57 179 1.7 2.6 0.00 0.00 0.01 72 1016.1
20260505162808 57 213 0.0 0.0 0.00 0.00 0.01 73 1016.1
20260505162307 57 0 0.0 0.0 0.00 0.00 0.01 73 1016.1
20260505161807 57 186 0.0 0.9 0.00 0.00 0.01 73 1016.1
20260505161308 57 161 0.9 1.7 0.00 0.00 0.01 73 1016.1
20260505160808 56 201 0.0 0.9 0.00 0.00 0.01 75 1016.0
20260505160308 56 213 0.9 1.7 0.00 0.00 0.01 75 1016.0
20260505153308 55 112 1.7 3.5 0.00 0.00 0.01 78 1015.9
20260505152809 55 124 1.7 2.6 0.00 0.00 0.01 79 1015.9
20260505152308 55 120 0.9 2.6 0.00 0.00 0.01 79 1015.9
20260505151808 55 141 1.7 2.6 0.00 0.00 0.01 78 1015.8
20260505151308 55 182 1.7 3.5 0.00 0.00 0.01 79 1015.8
20260505150807 55 168 1.7 2.6 0.00 0.00 0.01 80 1015.7
20260505150309 55 225 0.9 1.7 0.00 0.00 0.01 83 1015.7
20260505140319 53 191 0.0 0.9 0.00 0.00 0.01 86 1015.4
20260505130308 53 207 0.9 1.7 0.00 0.00 0.01 88 1015.0
20260505124808 53 224 0.0 1.7 0.00 0.00 0.01 89 1015.2
20260505124307 53 226 0.0 0.9 0.00 0.00 0.01 88 1015.2
20260505123807 53 220 0.9 1.7 0.00 0.00 0.01 89 1015.3
20260505123308 53 189 0.0 0.9 0.00 0.00 0.01 88 1015.4
20260505122807 53 199 0.0 1.7 0.00 0.00 0.01 88 1015.3
20260505122307 53 180 0.9 1.7 0.00 0.00 0.01 88 1015.4
20260505121807 53 202 0.0 0.9 0.00 0.00 0.01 88 1015.4
20260505121308 53 183 0.0 0.9 0.00 0.00 0.01 88 1015.4
20260505120808 53 165 0.0 1.7 0.01 0.00 0.01 89 1015.3
20260505120307 53 173 0.0 0.9 0.01 0.00 0.01 89 1015.3
20260505115808 53 142 0.9 1.7 0.01 0.00 0.01 90 1015.2
20260505115307 53 185 0.9 0.9 0.01 0.00 0.01 89 1015.3
20260505114808 53 199 0.0 0.9 0.01 0.00 0.01 89 1015.3
20260505114308 53 220 0.0 0.0 0.01 0.00 0.01 88 1015.4
20260505113807 53 0 0.0 0.0 0.01 0.00 0.01 86 1015.4
20260505113308 53 0 0.0 0.0 0.01 0.00 0.01 86 1015.4
20260505112807 53 233 0.0 0.9 0.01 0.00 0.01 86 1015.4
20260505112307 53 0 0.0 0.0 0.01 0.00 0.01 84 1015.3
20260505111808 53 244 0.0 1.7 0.01 0.00 0.01 84 1015.4
20260505111309 53 23 0.0 0.0 0.01 0.00 0.01 83 1015.4
20260505110807 53 328 0.0 0.9 0.00 0.00 0.01 82 1015.4
20260505110308 53 329 0.9 1.7 0.00 0.00 0.00 82 1015.3
20260505101808 53 296 0.9 1.7 0.00 0.00 0.00 79 1015.3
20260505101308 53 247 0.0 0.0 0.00 0.00 0.00 79 1015.4
20260505100807 53 339 0.0 0.9 0.00 0.00 0.00 80 1015.5
20260505100307 53 326 0.0 0.9 0.00 0.00 0.00 79 1015.5
20260505095808 54 279 0.9 1.7 0.00 0.00 0.00 78 1015.5
20260505095308 54 313 0.0 1.7 0.00 0.00 0.00 78 1015.5
20260505094807 54 322 0.0 0.9 0.00 0.00 0.00 78 1015.5
20260505094308 54 178 0.0 0.9 0.00 0.00 0.00 77 1015.5
20260505093807 54 296 0.9 1.7 0.00 0.00 0.00 76 1015.5
20260505093310 54 323 0.0 0.9 0.00 0.00 0.00 75 1015.6
20260505092808 54 322 0.9 1.7 0.00 0.00 0.00 74 1015.6
20260505092307 54 283 0.9 1.7 0.00 0.00 0.00 73 1015.5
20260505091807 54 309 0.0 0.9 0.00 0.00 0.00 73 1015.5
20260505091307 54 244 0.0 1.7 0.00 0.00 0.00 73 1015.5
20260505090808 54 291 0.9 1.7 0.00 0.00 0.00 72 1015.6
20260505090308 54 300 0.0 0.9 0.00 0.00 0.00 72 1015.7
20260505085807 55 279 0.9 1.7 0.00 0.00 0.00 72 1015.8
20260505085308 55 282 1.7 2.6 0.00 0.00 0.00 71 1015.8
20260505084809 55 285 1.7 3.5 0.00 0.00 0.00 71 1015.8
20260505084308 55 281 0.9 2.6 0.00 0.00 0.00 71 1015.9
20260505083807 55 285 3.5 5.2 0.00 0.00 0.00 70 1016.0
20260505083307 55 327 1.7 3.5 0.00 0.00 0.00 71 1016.1
20260505082808 55 309 0.9 1.7 0.00 0.00 0.00 70 1016.1
20260505082307 55 299 1.7 3.5 0.00 0.00 0.00 70 1016.2
20260505081808 55 272 1.7 3.5 0.00 0.00 0.00 70 1016.1
20260505081308 55 292 3.5 5.2 0.00 0.00 0.00 69 1016.0
20260505080808 55 308 0.9 1.7 0.00 0.00 0.00 69 1016.1
20260505080307 55 300 2.6 3.5 0.00 0.00 0.00 69 1016.1
20260505075807 55 295 3.5 5.2 0.00 0.00 0.00 68 1016.2
20260505075308 55 304 1.7 2.6 0.00 0.00 0.00 69 1016.2
20260505074808 55 299 1.7 3.5 0.00 0.00 0.00 69 1016.2
20260505074310 55 300 2.6 5.2 0.00 0.00 0.00 69 1016.2
20260505073807 55 294 3.5 6.1 0.00 0.00 0.00 69 1016.2
20260505073308 55 312 1.7 3.5 0.00 0.00 0.00 71 1016.2
20260505072807 55 327 1.7 2.6 0.00 0.00 0.00 72 1016.2
20260505072307 55 286 1.7 2.6 0.00 0.00 0.00 74 1016.1
20260505071810 55 289 2.6 2.6 0.00 0.00 0.00 75 1016.1
20260505071307 55 294 1.7 2.6 0.00 0.00 0.00 75 1016.0
20260505070807 55 301 0.0 1.7 0.00 0.00 0.00 75 1016.0
20260505070307 55 281 1.7 3.5 0.00 0.00 0.00 75 1015.9
20260505065808 55 304 1.7 2.6 0.00 0.00 0.00 76 1015.8
20260505065307 55 299 1.7 3.5 0.00 0.00 0.00 75 1015.8
20260505064807 55 314 0.9 2.6 0.00 0.00 0.00 76 1015.8
20260505064308 55 308 0.9 2.6 0.00 0.00 0.00 76 1015.8
20260505063808 55 291 0.9 1.7 0.00 0.00 0.00 76 1015.8
20260505063308 55 312 1.7 2.6 0.00 0.00 0.00 76 1015.8
20260505062807 55 287 2.6 3.5 0.00 0.00 0.00 77 1015.8
20260505062310 55 310 0.9 1.7 0.00 0.00 0.00 79 1015.8
20260505061327 55 305 2.6 3.5 0.00 0.00 0.00 79 1015.6
20260505060807 56 268 0.9 2.6 0.00 0.00 0.00 79 1015.6
20260505060308 56 282 1.7 2.6 0.00 0.00 0.00 79 1015.6
20260505055807 56 295 1.7 2.6 0.00 0.00 0.00 79 1015.6
20260505055307 56 293 1.7 1.7 0.00 0.00 0.00 79 1015.7
20260505054808 56 324 1.7 3.5 0.00 0.00 0.00 79 1015.7
20260505054308 56 308 2.6 3.5 0.00 0.00 0.00 79 1015.8
20260505053807 56 264 2.6 4.3 0.00 0.00 0.00 79 1015.8
20260505053308 56 299 1.7 2.6 0.00 0.00 0.00 79 1015.8
20260505052808 56 306 1.7 3.5 0.00 0.00 0.00 79 1016.0
20260505052308 56 330 1.7 3.5 0.00 0.00 0.00 79 1016.1
20260505051809 56 286 1.7 3.5 0.00 0.00 0.00 78 1016.1
20260505051307 56 286 2.6 5.2 0.00 0.00 0.00 77 1016.1
20260505050807 57 327 1.7 2.6 0.00 0.00 0.00 77 1016.1
20260505050307 57 329 1.7 3.5 0.00 0.00 0.00 77 1016.1
20260505041307 57 313 1.7 2.6 0.00 0.00 0.00 75 1015.6
20260505040808 57 319 2.6 4.3 0.00 0.00 0.00 75 1015.6
20260505040307 57 327 1.7 2.6 0.00 0.00 0.00 75 1015.6
20260505035808 57 322 0.9 1.7 0.00 0.00 0.00 74 1015.5
20260505035310 57 278 1.7 3.5 0.00 0.00 0.00 73 1015.5
20260505034808 58 272 1.7 3.5 0.00 0.00 0.00 73 1015.5
20260505034308 58 283 1.7 4.3 0.00 0.00 0.00 72 1015.4
20260505033807 58 325 2.6 4.3 0.00 0.00 0.00 71 1015.3
20260505033308 58 308 1.7 2.6 0.00 0.00 0.00 70 1015.2
20260505032810 58 304 2.6 4.3 0.00 0.00 0.00 70 1015.1
20260505032308 58 262 0.9 1.7 0.00 0.00 0.00 69 1014.9
20260505031808 59 336 1.7 3.5 0.00 0.00 0.00 68 1015.0
20260505031307 59 267 3.5 6.1 0.00 0.00 0.00 67 1015.0
20260505030807 59 310 1.7 3.5 0.00 0.00 0.00 67 1015.0
20260505030307 59 320 1.7 3.5 0.00 0.00 0.00 66 1015.0
20260505025809 59 272 0.9 1.7 0.00 0.00 0.00 65 1015.0
20260505025310 60 304 1.7 4.3 0.00 0.00 0.00 65 1014.9
20260505024810 60 338 1.7 3.5 0.00 0.00 0.00 63 1014.9
20260505024309 60 294 1.7 2.6 0.00 0.00 0.00 63 1014.9
20260505023808 60 305 1.7 1.7 0.00 0.00 0.00 63 1014.9
20260505023307 60 325 2.6 5.2 0.00 0.00 0.00 63 1014.9
20260505022810 60 341 1.7 3.5 0.00 0.00 0.00 63 1014.9
20260505022311 60 329 2.6 5.2 0.00 0.00 0.00 63 1014.8
20260505021809 60 283 1.7 4.3 0.00 0.00 0.00 62 1014.8
20260505021310 60 310 1.7 3.5 0.00 0.00 0.00 60 1015.0
20260505020809 60 293 1.7 3.5 0.00 0.00 0.00 59 1014.9
20260505020308 60 285 1.7 2.6 0.00 0.00 0.00 59 1014.8
20260505015808 60 295 2.6 3.5 0.00 0.00 0.00 59 1014.9
20260505015308 60 335 3.5 6.1 0.00 0.00 0.00 58 1014.8
20260505014807 61 302 1.7 3.5 0.00 0.00 0.00 57 1014.9
20260505014307 61 326 1.7 4.3 0.00 0.00 0.00 58 1014.9
20260505013807 61 347 2.6 6.1 0.00 0.00 0.00 57 1014.9
20260505013307 61 336 2.6 6.1 0.00 0.00 0.00 58 1014.9
20260505012807 62 332 3.5 6.1 0.00 0.00 0.00 58 1014.9
20260505012307 62 337 3.5 6.1 0.00 0.00 0.00 59 1014.9
20260505011807 63 307 1.7 2.6 0.00 0.00 0.00 59 1015.0
20260505011308 63 321 2.6 3.5 0.00 0.00 0.00 58 1015.0
20260505010807 63 278 1.7 2.6 0.00 0.00 0.00 58 1014.9
20260505010318 63 330 3.5 6.1 0.00 0.00 0.00 57 1015.1
20260505005809 62 341 2.6 5.2 0.00 0.00 0.00 59 1015.1
20260505005307 62 303 2.6 6.1 0.00 0.00 0.00 60 1015.1
20260505004808 62 301 2.6 4.3 0.00 0.00 0.00 60 1015.1
20260505004308 62 304 4.3 5.2 0.00 0.00 0.00 60 1015.2
20260505003807 62 252 1.7 2.6 0.00 0.00 0.00 62 1015.2
20260505003307 62 302 2.6 6.1 0.00 0.00 0.00 63 1015.2
20260505002807 62 302 4.3 6.1 0.00 0.00 0.00 63 1015.2
20260505002308 61 298 3.5 6.1 0.00 0.00 0.00 63 1015.2
20260505001807 61 313 2.6 4.3 0.00 0.00 0.00 64 1015.3
20260505001308 61 309 2.6 4.3 0.00 0.00 0.00 64 1015.2
20260505000808 61 270 2.6 3.5 0.00 0.00 0.00 65 1015.2
20260505000307 61 263 1.7 3.5 0.00 0.00 0.00 65 1015.2
20260504235808 61 299 4.3 6.1 0.00 0.00 0.00 64 1015.2
20260504235307 61 266 1.7 3.5 0.00 0.00 0.00 65 1015.2
20260504234809 61 282 1.7 3.5 0.00 0.00 0.00 65 1015.2